Regional Weather Roundup
Issued by NWS

Home | Current Version | Previous Version | Graphics & Text | Print | Product List | Glossary On
Versions: 1 2 3 4 5 6 7 8 9 10 11 12 13 14 15 16 17 18 19 20 21 22 23 24 25 26 27 28 29 30 31 32 33 34 35 36 37 38 39 40 41 42 43 44 45 46 47 48 49 50
000
ASUS43 KLOT 230210
RWRIL

ILLINOIS REGIONAL WEATHER ROUNDUP
NATIONAL WEATHER SERVICE CHICAGO/ROMEOVILLE IL
800 PM CST MON DEC 22 2014

NOTE: "FAIR" INDICATES FEW OR NO CLOUDS BELOW 12,000 FEET WITH NO
SIGNIFICANT WEATHER AND/OR OBSTRUCTIONS TO VISIBILITY.

* THESE STATIONS ARE NOT UNDER NWS QUALITY CONTROL. THEY ALSO MAY NOT
  REPORT WEATHER SUCH AS PRECIPITATION OR FOG.

ILZ001-002-007-009-015-016-024-230300-
NORTHWEST ILLINOIS

CITY           SKY/WX    TMP DP  RH WIND       PRES   REMARKS
MOLINE         CLOUDY    41  39  93 E7        29.53F FOG
STERLING*      CLOUDY    39  36  87 E9        29.58S WCI  33
SAVANNA*       CLOUDY    40  38  95 E8        29.57F FOG
$$

ILZ003-004-008-010-011-017-018-230300-
NORTH CENTRAL ILLINOIS

CITY           SKY/WX    TMP DP  RH WIND       PRES   REMARKS
ROCKFORD       LGT RAIN  40  38  93 SE9       29.63F FOG
FREEPORT*      CLOUDY    37  37  99 E7        29.61F FOG     WCI  31
ROCHELLE*      CLOUDY    39  38  99 SE15      29.60F FOG     WCI  30
DE KALB*       RAIN      39  38  98 SE14      29.62F WCI  30
PERU*          LGT RAIN  42  41  97 SE10      29.59F
$$

ILZ005-006-012>014-019>023-230300-
NORTHEAST ILLINOIS

CITY           SKY/WX    TMP DP  RH WIND       PRES   REMARKS
CHICAGO-OHARE  LGT RAIN  40  39  97 SE14      29.65F FOG
CHICAGO-MIDWAY LGT RAIN  43  40  89 SE14      29.66F FOG
AURORA         LGT RAIN  42  39  89 SE12      29.63F FOG
LANSING*       DRIZZLE   40  39  95 SE18      29.66F
JOLIET*        RAIN      40  39  96 SE10      29.64S
WAUKEGAN       LGT RAIN  38  37  97 SE14G23   29.66F FOG     WCI  30
DUPAGE AIRPORT LGT RAIN  42  40  92 SE8       29.63F FOG
KANKAKEE*      LGT RAIN  40  39  96 E17       29.64F
WHEELING       CLOUDY    40  38  93 SE12      29.67F FOG
MORRIS*        RAIN      42  42  99 SE13      29.61F
ROMEOVILLE*    LGT RAIN  41  41 100 SE14G21   29.63F
NORTHERLY ISL    N/A     37  36  96 E10         N/A  WCI  30
$$

LMZ740>746-230300-
SOUTHERN LAKE MICHIGAN

STATION/POSITION SKY/WX   TEMP    WIND        PRES    VSBY  WAVE
                          AIR SEA DIR/SP/G                  HT/PER
                          (F)     (DEG/KT/KT) (MB)    (MI)  (FT/S)
WAUKEGAN HARBOR            38     130/ 18/ 21   N/A
HARRISON CRIB              39     130/ 15/ 18   N/A
BURNHAM HARBOR             37     110/  9/ 12   N/A
CALUMET HARBOR             41     110/ 11/ 17 1003.7F
$$

ILZ025>027-034>036-040-047-049-050-058-095>099-230300-
WEST-CENTRAL ILLINOIS

CITY           SKY/WX    TMP DP  RH WIND       PRES   REMARKS
QUINCY         LGT RAIN  45  44  97 SE9       29.48S FOG
GALESBURG*     CLOUDY    42  42  99 E6        29.52F FOG
MACOMB*        LGT RAIN  44  44 100 SE9       29.53F
JACKSONVILLE*  CLOUDY    48  46  95 SE8       29.52S FOG
PITTSFIELD*    CLOUDY    47  46  95 SE9       29.51S FOG
$$

ILZ028>032-037-038-041>044-048-051>054-059>061-230300-
CENTRAL ILLINOIS

CITY           SKY/WX    TMP DP  RH WIND       PRES   REMARKS
PONTIAC        LGT RAIN  42  42  99 SE10      29.61F
BLOOMINGTON    LGT RAIN  45  45 100 SE13      29.57F FOG
DECATUR        LGT RAIN  47  46  97 SE14      29.57F FOG
PEORIA         LGT RAIN  47  43  86 SE9       29.54F FOG
LACON*         LGT RAIN  43  41  94 SE12G17   29.56F
LINCOLN*       RAIN      47  46  95 SE12      29.56F
SPRINGFIELD    CLOUDY    48  47  96 SE12      29.54F
TAYLORVILLE    DRIZZLE   45  45 100 SE13      29.55F
$$

ILZ033-039-045-046-055>057-062-063-230300-
EAST-CENTRAL ILLINOIS

CITY           SKY/WX    TMP DP  RH WIND       PRES   REMARKS
CHAMPAIGN      LGT RAIN  45  43  93 SE17      29.59F FOG
DANVILLE*      HVY RAIN  43  42  97 SE13      29.61F
RANTOUL*       LGT RAIN  46  44  95 SE15G21   29.60F
MATTOON        LGT RAIN  47  45  93 SE16      29.59F FOG
PARIS*         DRIZZLE   45  45  99 SE8       29.63F
$$

ILZ079-100>102-230300-
SOUTHWEST ILLINOIS

CITY           SKY/WX    TMP DP  RH WIND       PRES   REMARKS
ALTON          LGT RAIN  48  48 100 SE8       29.53F
BELLEVILLE     DRIZZLE   50  50 100 SE6       29.53F
CAHOKIA*       LGT RAIN  50  49  96 S6        29.53F
SPARTA*        DRIZZLE   50  50  99 SE5       29.56F
$$

ILZ064>066-069>071-074>076-080>082-084>086-088>090-092>094-230300-
SOUTH-CENTRAL ILLINOIS

CITY           SKY/WX    TMP DP  RH WIND       PRES   REMARKS
CARBONDALE     LGT RAIN  51  50  96 S12       29.58S
CAIRO*         RAIN      54  54 100 SE10      29.60S
EFFINGHAM*     LGT RAIN  48  46  90 SE12      29.60S
MARION         DRIZZLE   52  50  93 SE8       29.59F
MT. VERNON     CLOUDY    50  46  87 SE12G17   29.59S
CENTRALIA*     RAIN      49  47  92 S13       29.57S
SALEM*         RAIN      51  49  92 SE10      29.57F
METROPOLIS*    DRIZZLE   52  52 100 SE5       29.61S
$$

ILZ067-068-072-073-078-083-087-091-230300-
SOUTHEAST ILLINOIS

CITY           SKY/WX    TMP DP  RH WIND       PRES   REMARKS
LAWRENCEVILLE  CLOUDY    49  46  90 SE13      29.64S
FLORA*         MOCLDY    49  47  95 SE16      29.60F
FAIRFIELD*     CLOUDY    50  48  95 SE16      29.60S
HARRISBURG*    DRIZZLE   51  50  99 SE8       29.62S
ROBINSON*      CLOUDY    48  45  90 SE9       29.65R
CARMI*         CLOUDY    51  50  96 SE14      29.62S
$$

ABBREVIATIONS USED IN REMARKS
   TC - TEMPERATURE IN CELSIUS
  WCI - WIND CHILL INDEX
   HX - HEAT INDEX
  VSB - VISIBILITY
$$




USA.gov is the U.S. government's official web portal to all federal, state and local government web resources and services.